Preview of NWS' New Version of Forecast
This preview is not operational and should not be used for support decisions.

Regional Weather Roundup (RWR)

Issued by National Weather Service (NWS)

                            
000
ASUS45 KBOI 171010
RWRID 

IDAHO REGIONAL WEATHER ROUNDUP
NATIONAL WEATHER SERVICE BOISE ID
400 AM MDT WED APR 17 2019

NOTE: "FAIR" INDICATES FEW OR NO CLOUDS BELOW 12000 FEET
WITH NO SIGNIFICANT WEATHER AND/OR OBSTRUCTIONS TO VISIBILITY

IDZ012-014-171100-
SOUTHWEST IDAHO

  
CITY           SKY/WX    TMP DP  RH WIND       PRES   REMARKS
BOISE          FAIR      41  35  79 SE7       30.13S                  
CALDWELL       FAIR      39  36  89 E3        30.14S                  
MOUNTAIN HOME  FAIR      38  38 100 CALM      30.14S                  
$$

IDZ016-017-171100-
SOUTHCENTRAL IDAHO

  
CITY           SKY/WX    TMP DP  RH WIND       PRES   REMARKS
BURLEY         FAIR      38  30  73 S6        30.11R WCI  33          
JEROME         FAIR      38  32  79 SW10      30.12R WCI  31          
TWIN FALLS     FAIR      38  31  76 S15       30.13S WCI  29          
$$

IDZ019>023-171100-
SOUTHEAST IDAHO

  
CITY           SKY/WX    TMP DP  RH WIND       PRES   REMARKS
IDAHO FALLS    FAIR      37  31  78 SW12      30.10S WCI  29          
POCATELLO      FAIR      40  30  67 SW15      30.12R WCI  32          
REXBURG        FAIR      36  31  82 S7        30.08F WCI  30          
$$

IDZ006-010-011-018-031-032-171100-
CENTRAL IDAHO MOUNTAINS

  
CITY           SKY/WX    TMP DP  RH WIND       PRES   REMARKS
MCCALL         CLOUDY    27  25  92 CALM      30.11S                  
HAILEY         FAIR      34  27  75 W10       30.12R WCI  26          
STANLEY          N/A     27  22  81 SE6       30.14S WCI  20          
SALMON         FAIR      42  34  73 SE5       30.08S                  
CHALLIS        FAIR      37  26  64 CALM      30.09S                  
$$

IDZ002-004-006-007-026-171100-
NORTHERN IDAHO

  
CITY           SKY/WX    TMP DP  RH WIND       PRES   REMARKS
LEWISTON       CLOUDY    49  42  77 CALM      30.09R                  
LOWELL           N/A     44  43  96 CALM      30.14R                  
COEUR D'ALENE  LGT RAIN  46  39  76 SW10      30.05R                  
MULLAN PASS    SNOW      31  29  92 VRB6      29.99F VSB 1/2 WCI  25  
$$